When you browse on this site, cookies collect data to enhance your experience and personalize the content and advertising you see.
Visit our Privacy Policy to learn more. By continuing to use the site, you agree to this use of cookies and data.
EN

Hourly Weather Tatabanya

Today, 10 July, Friday

Time Temperature Precipitation Wind Pressure Humidity
00:00 +20°C° 0 mm 2 mps 741 mmHg 71%
01:00 +19°C° 0 mm 2 mps 741 mmHg 73%
02:00 +19°C° 0 mm 2 mps 741 mmHg 75%
03:00 +18°C° 0 mm 2 mps 741 mmHg 78%
04:00 +18°C° 0 mm 2 mps 741 mmHg 80%
05:00 +19°C° 0 mm 2 mps 741 mmHg 77%
06:00 +21°C° 0 mm 2 mps 741 mmHg 74%
07:00 +22°C° 0 mm 3 mps 742 mmHg 71%
08:00 +25°C° 0 mm 3 mps 742 mmHg 66%
09:00 +26°C° 0 mm 4 mps 742 mmHg 62%
10:00 +28°C° 0 mm 5 mps 742 mmHg 57%
11:00 +29°C° 0 mm 5 mps 741 mmHg 55%
12:00 +30°C° 0 mm 5 mps 741 mmHg 53%
13:00 +30°C° 0 mm 5 mps 741 mmHg 51%
14:00 +32°C° 0 mm 5 mps 740 mmHg 52%
15:00 +32°C° 0 mm 5 mps 740 mmHg 52%
16:00 +32°C° 0 mm 5 mps 740 mmHg 53%
17:00 +29°C° 0 mm 4 mps 739 mmHg 59%
18:00 +28°C° 0 mm 4 mps 739 mmHg 64%
19:00 +26°C° 0 mm 4 mps 739 mmHg 70%
20:00 +25°C° 0 mm 4 mps 739 mmHg 71%
21:00 +24°C° 0 mm 3 mps 739 mmHg 72%
22:00 +22°C° 0 mm 3 mps 739 mmHg 74%
23:00 +21°C° 0 mm 3 mps 739 mmHg 76%

Tomorrow, 11 July, Saturday

Time Temperature Precipitation Wind Pressure Humidity
00:00 +21°C° 0 mm 2 mps 740 mmHg 78%
01:00 +20°C° 0 mm 2 mps 740 mmHg 80%
02:00 +20°C° 0 mm 2 mps 740 mmHg 82%
03:00 +20°C° 0 mm 1 mps 740 mmHg 84%
04:00 +20°C° 0 mm 1 mps 740 mmHg 87%
05:00 +21°C° 0 mm 1 mps 740 mmHg 81%
06:00 +21°C° 0 mm 2 mps 740 mmHg 76%
07:00 +24°C° 0 mm 2 mps 740 mmHg 71%
08:00 +25°C° 0 mm 2 mps 740 mmHg 66%
09:00 +26°C° 0 mm 2 mps 740 mmHg 61%
10:00 +28°C° 0 mm 2 mps 740 mmHg 56%
11:00 +28°C° 0.3 mm 3 mps 740 mmHg 59%
12:00 +27°C° 0.3 mm 4 mps 741 mmHg 62%
13:00 +27°C° 0.3 mm 6 mps 741 mmHg 65%
14:00 +24°C° 0.2 mm 6 mps 741 mmHg 68%
15:00 +22°C° 0.2 mm 7 mps 741 mmHg 72%
16:00 +20°C° 0.2 mm 8 mps 741 mmHg 76%
17:00 +18°C° 0.2 mm 8 mps 741 mmHg 78%
18:00 +17°C° 0.2 mm 8 mps 741 mmHg 79%
19:00 +15°C° 0.2 mm 8 mps 741 mmHg 81%
20:00 +15°C° 0.1 mm 7 mps 742 mmHg 83%
21:00 +14°C° 0.1 mm 7 mps 742 mmHg 84%
22:00 +14°C° 0.1 mm 7 mps 742 mmHg 86%
23:00 +13°C° 0.1 mm 6 mps 743 mmHg 86%

Day after tomorrow, 12 July, Sunday

Time Temperature Precipitation Wind Pressure Humidity
00:00 +13°C° 0.1 mm 6 mps 743 mmHg 86%
01:00 +13°C° 0.1 mm 5 mps 743 mmHg 87%
02:00 +13°C° 0 mm 5 mps 743 mmHg 86%
03:00 +12°C° 0 mm 5 mps 743 mmHg 85%
04:00 +12°C° 0 mm 5 mps 743 mmHg 84%
05:00 +13°C° 0 mm 5 mps 744 mmHg 80%
06:00 +14°C° 0 mm 5 mps 744 mmHg 76%
07:00 +14°C° 0 mm 6 mps 744 mmHg 72%
08:00 +16°C° 0 mm 6 mps 745 mmHg 68%
09:00 +17°C° 0 mm 5 mps 745 mmHg 63%
10:00 +19°C° 0 mm 5 mps 745 mmHg 58%
11:00 +20°C° 0 mm 5 mps 746 mmHg 56%
12:00 +21°C° 0 mm 5 mps 746 mmHg 54%
13:00 +22°C° 0 mm 4 mps 746 mmHg 52%
14:00 +22°C° 0 mm 4 mps 746 mmHg 53%
15:00 +22°C° 0 mm 4 mps 745 mmHg 53%
16:00 +22°C° 0 mm 4 mps 745 mmHg 53%
17:00 +21°C° 0 mm 3 mps 745 mmHg 60%
18:00 +19°C° 0 mm 3 mps 745 mmHg 67%
19:00 +18°C° 0 mm 2 mps 746 mmHg 73%
20:00 +17°C° 0 mm 2 mps 746 mmHg 76%
21:00 +15°C° 0 mm 2 mps 746 mmHg 79%
22:00 +14°C° 0 mm 1 mps 746 mmHg 81%
23:00 +14°C° 0 mm 1 mps 746 mmHg 83%

13 July, Monday

Time Temperature Precipitation Wind Pressure Humidity
00:00 +13°C° 0 mm 1 mps 746 mmHg 86%
01:00 +13°C° 0 mm 1 mps 746 mmHg 88%
02:00 +12°C° 0 mm 1 mps 746 mmHg 89%
03:00 +12°C° 0 mm 1 mps 746 mmHg 90%
04:00 +12°C° 0 mm 1 mps 746 mmHg 91%
05:00 +13°C° 0 mm 1 mps 746 mmHg 85%
06:00 +15°C° 0 mm 1 mps 746 mmHg 80%
07:00 +16°C° 0 mm 1 mps 746 mmHg 74%
08:00 +18°C° 0 mm 2 mps 746 mmHg 66%
09:00 +19°C° 0 mm 2 mps 746 mmHg 58%
10:00 +21°C° 0 mm 2 mps 746 mmHg 50%
11:00 +22°C° 0 mm 3 mps 746 mmHg 47%
12:00 +22°C° 0 mm 3 mps 745 mmHg 44%
13:00 +24°C° 0 mm 3 mps 745 mmHg 41%
14:00 +24°C° 0 mm 3 mps 745 mmHg 42%
15:00 +24°C° 0 mm 3 mps 744 mmHg 43%
16:00 +24°C° 0 mm 3 mps 744 mmHg 44%
17:00 +21°C° 0 mm 3 mps 744 mmHg 52%
18:00 +20°C° 0 mm 3 mps 744 mmHg 59%
19:00 +19°C° 0 mm 2 mps 743 mmHg 66%
20:00 +17°C° 0 mm 2 mps 743 mmHg 70%
21:00 +16°C° 0 mm 1 mps 743 mmHg 73%
22:00 +14°C° 0 mm 1 mps 743 mmHg 77%
23:00 +14°C° 0 mm 1 mps 743 mmHg 79%

14 July, Tuesday

Time Temperature Precipitation Wind Pressure Humidity
00:00 +13°C° 0 mm 1 mps 743 mmHg 81%
01:00 +13°C° 0 mm 1 mps 743 mmHg 83%
02:00 +11°C° 0 mm 0 mps 743 mmHg 84%
03:00 +11°C° 0 mm 0 mps 743 mmHg 85%
04:00 +11°C° 0 mm 0 mps 742 mmHg 87%
05:00 +13°C° 0 mm 0 mps 743 mmHg 81%
06:00 +14°C° 0 mm 0 mps 743 mmHg 76%
07:00 +18°C° 0 mm 1 mps 743 mmHg 71%
08:00 +20°C° 0 mm 1 mps 743 mmHg 66%
09:00 +20°C° 0 mm 2 mps 743 mmHg 61%
10:00 +23°C° 0 mm 2 mps 743 mmHg 56%
11:00 +23°C° 0.1 mm 2 mps 743 mmHg 54%
12:00 +24°C° 0.1 mm 2 mps 742 mmHg 51%
13:00 +25°C° 0.1 mm 2 mps 742 mmHg 49%
14:00 +25°C° 0 mm 2 mps 742 mmHg 49%
15:00 +25°C° 0 mm 2 mps 741 mmHg 50%
16:00 +25°C° 0 mm 2 mps 741 mmHg 50%
17:00 +23°C° 0 mm 2 mps 741 mmHg 56%
18:00 +21°C° 0 mm 2 mps 741 mmHg 62%
19:00 +20°C° 0 mm 2 mps 741 mmHg 67%
20:00 +19°C° 0 mm 2 mps 741 mmHg 68%
21:00 +17°C° 0 mm 2 mps 741 mmHg 69%
22:00 +16°C° 0 mm 2 mps 741 mmHg 70%
23:00 +16°C° 0 mm 2 mps 741 mmHg 70%

15 July, Wednesday

Time Temperature Precipitation Wind Pressure Humidity
00:00 +15°C° 0 mm 2 mps 741 mmHg 71%
01:00 +15°C° 0 mm 1 mps 741 mmHg 71%
02:00 +15°C° 0 mm 1 mps 741 mmHg 72%
03:00 +14°C° 0 mm 1 mps 740 mmHg 73%
04:00 +14°C° 0 mm 1 mps 740 mmHg 73%
05:00 +16°C° 0 mm 1 mps 740 mmHg 71%
06:00 +17°C° 0 mm 2 mps 741 mmHg 69%
07:00 +18°C° 0 mm 2 mps 741 mmHg 66%
08:00 +20°C° 0 mm 2 mps 741 mmHg 63%
09:00 +21°C° 0 mm 2 mps 741 mmHg 60%
10:00 +22°C° 0 mm 3 mps 741 mmHg 56%
11:00 +24°C° 0 mm 3 mps 741 mmHg 53%
12:00 +25°C° 0 mm 3 mps 741 mmHg 50%
13:00 +26°C° 0 mm 3 mps 741 mmHg 47%
14:00 +26°C° 0 mm 2 mps 741 mmHg 47%
15:00 +26°C° 0 mm 2 mps 740 mmHg 47%
16:00 +26°C° 0 mm 2 mps 740 mmHg 47%
17:00 +25°C° 0 mm 2 mps 740 mmHg 53%
18:00 +23°C° 0 mm 2 mps 740 mmHg 58%
19:00 +21°C° 0 mm 2 mps 739 mmHg 64%
20:00 +20°C° 0 mm 2 mps 740 mmHg 65%
21:00 +19°C° 0 mm 2 mps 740 mmHg 66%
22:00 +18°C° 0 mm 2 mps 740 mmHg 67%
23:00 +18°C° 0 mm 2 mps 740 mmHg 68%
Show more